Weather History for Murray, KY

Change the Weather History Date:

Saturday, June 29, 2013

  Actual Average (KPAH) Record (KPAH)
Temperature  
Mean Temperature 74 °F 78 °F  
Max Temperature 86 °F 89 °F 108 °F (2012)
Min Temperature 62 °F 68 °F 57 °F (1950)
Degree Days  
Heating Degree Days 0 0  
Month to date heating degree days 0  
Since 1 June heating degree days 0  
Since 1 July heating degree days 4128  
Cooling Degree Days 9 13  
Month to date cooling degree days 304  
Year to date cooling degree days 476  
Since 1 June cooling degree days 304  
Growing Degree Days 24 (Base 50)    
Moisture  
Dew Point 60 °F    
Average Humidity 62    
Maximum Humidity 100    
Minimum Humidity 40    
Precipitation  
Precipitation 0.29 in 0.13 in 3.02 in (2007)
Month to date precipitation 3.92  
Year to date precipitation 25.14  
Snow  
Snow 0.00 in 0.00 in 0.00 in (2002)
Month to date snowfall 0.0  
Since 1 June snowfall 0.0  
Since 1 July snowfall 9.1  
Snow Depth -    
Sea Level Pressure  
Sea Level Pressure 29.70 in    
Wind  
Wind Speed 9 mph (WNW)    
Max Wind Speed 15 mph    
Max Gust Speed 32 mph    
Visibility 10 miles    
Events      
T = Trace of Precipitation, MM = Missing Value Source: NWS Daily Summary

Daily Weather History Graph

Daily Weather History Graph

Search for Another Location

Airport:

Trip Planner

Search our weather history database for the weather conditions in past years. The results will help you decide how hot, cold, wet, or windy it might be!

Date:

Astronomy

Jun. 29, 2013 Rise Set
Actual Time 5:37 AM CDT 8:16 PM CDT
Civil Twilight 5:07 AM CDT 8:46 PM CDT
Nautical Twilight 4:29 AM CDT 9:24 PM CDT
Astronomical Twilight 3:46 AM CDT 10:07 PM CDT
Moon No Moon Rise 12:37 PM CDT (6/29)
Length of Visible Light 15h 39m
Length of Day
14h 38m
Waning Gibbous, 55% of the Moon is Illuminated
Jun 29
Waning Gibbous
Jun 29
Last Quarter
Jul 8
New
Jul 15
First Quarter
Jul 22
Full

Hourly Weather History & Observations

Time (CDT) Temp. Heat Index Dew Point Humidity Pressure Visibility Wind Dir Wind Speed Gust Speed Precip Events Conditions
12:15 AM 69.8 °F - 60.8 °F 73% 29.74 in 10.0 mi SW 6.9 mph - N/A   Clear
12:35 AM 71.6 °F - 59.0 °F 64% 29.74 in 10.0 mi WSW 8.1 mph - N/A   Clear
12:55 AM 69.8 °F - 59.0 °F 68% 29.74 in 10.0 mi WSW 8.1 mph - N/A   Clear
1:15 AM 69.8 °F - 59.0 °F 68% 29.73 in 10.0 mi West 8.1 mph - N/A   Clear
1:35 AM 69.8 °F - 59.0 °F 68% 29.73 in 10.0 mi West 6.9 mph - N/A   Clear
1:55 AM 69.8 °F - 57.2 °F 64% 29.71 in 10.0 mi WSW 8.1 mph - N/A   Clear
2:15 AM 68.0 °F - 57.2 °F 68% 29.71 in 10.0 mi West 9.2 mph - N/A   Clear
2:35 AM 68.0 °F - 57.2 °F 68% 29.70 in 10.0 mi West 8.1 mph - N/A   Clear
2:55 AM 68.0 °F - 57.2 °F 68% 29.70 in 10.0 mi WSW 10.4 mph - N/A   Clear
3:15 AM 69.8 °F - 57.2 °F 64% 29.70 in 10.0 mi West 10.4 mph - N/A   Clear
3:35 AM 69.8 °F - 57.2 °F 64% 29.70 in 10.0 mi West 9.2 mph - N/A   Clear
3:55 AM 68.0 °F - 57.2 °F 68% 29.70 in 10.0 mi West 9.2 mph - N/A   Clear
4:15 AM 68.0 °F - 59.0 °F 73% 29.70 in 10.0 mi West 8.1 mph - N/A   Clear
4:35 AM 68.0 °F - 59.0 °F 73% 29.70 in 10.0 mi West 9.2 mph - N/A   Clear
4:55 AM 68.0 °F - 59.0 °F 73% 29.70 in 10.0 mi West 8.1 mph - N/A   Clear
5:15 AM 68.0 °F - 59.0 °F 73% 29.70 in 10.0 mi West 8.1 mph - N/A   Clear
5:35 AM 68.0 °F - 59.0 °F 73% 29.71 in 10.0 mi West 6.9 mph - N/A   Clear
5:55 AM 68.0 °F - 59.0 °F 73% 29.71 in 10.0 mi West 6.9 mph - N/A   Clear
6:15 AM 68.0 °F - 59.0 °F 73% 29.71 in 10.0 mi West 5.8 mph - N/A   Clear
6:35 AM 69.8 °F - 59.0 °F 68% 29.71 in 10.0 mi West 6.9 mph - N/A   Clear
6:55 AM 71.6 °F - 59.0 °F 64% 29.71 in 10.0 mi WNW 6.9 mph - N/A   Clear
7:15 AM 71.6 °F - 59.0 °F 64% 29.71 in 10.0 mi WNW 8.1 mph - N/A   Clear
7:35 AM 73.4 °F - 59.0 °F 61% 29.71 in 10.0 mi NW 11.5 mph - N/A   Clear
7:55 AM 73.4 °F - 59.0 °F 61% 29.71 in 10.0 mi NW 10.4 mph - N/A   Clear
8:15 AM 75.2 °F - 59.0 °F 57% 29.71 in 10.0 mi NW 12.7 mph - N/A   Clear
8:35 AM 75.2 °F - 59.0 °F 57% 29.71 in 10.0 mi WNW 13.8 mph - N/A   Clear
8:55 AM 77.0 °F - 60.8 °F 57% 29.71 in 10.0 mi WNW 10.4 mph - N/A   Clear
9:15 AM 77.0 °F - 59.0 °F 54% 29.71 in 10.0 mi NW 12.7 mph - N/A   Clear
9:35 AM 78.8 °F - 59.0 °F 51% 29.71 in 10.0 mi NW 10.4 mph - N/A   Clear
9:55 AM 78.8 °F - 59.0 °F 51% 29.71 in 10.0 mi NW 15.0 mph 19.6 mph N/A   Clear
10:15 AM 80.6 °F 81.1 °F 59.0 °F 48% 29.70 in 10.0 mi NNW 11.5 mph - N/A   Clear
10:35 AM 80.6 °F 81.1 °F 59.0 °F 48% 29.71 in 10.0 mi NW 11.5 mph - N/A   Clear
10:55 AM 80.6 °F 81.1 °F 59.0 °F 48% 29.71 in 10.0 mi NW 13.8 mph 23.0 mph N/A   Partly Cloudy
11:15 AM 82.4 °F 82.5 °F 59.0 °F 45% 29.71 in 10.0 mi NW 12.7 mph 20.7 mph N/A   Scattered Clouds
11:35 AM 82.4 °F 82.5 °F 59.0 °F 45% 29.71 in 10.0 mi NW 15.0 mph 20.7 mph N/A   Scattered Clouds
11:55 AM 82.4 °F 82.5 °F 59.0 °F 45% 29.70 in 10.0 mi West 13.8 mph 20.7 mph N/A   Scattered Clouds
12:15 PM 82.4 °F 82.5 °F 59.0 °F 45% 29.70 in 10.0 mi NW 9.2 mph 19.6 mph N/A   Partly Cloudy
12:35 PM 82.4 °F 82.5 °F 59.0 °F 45% 29.70 in 10.0 mi West 13.8 mph - N/A   Scattered Clouds
12:55 PM 82.4 °F 82.5 °F 59.0 °F 45% 29.70 in 10.0 mi NW 11.5 mph 18.4 mph N/A   Mostly Cloudy
1:15 PM 82.4 °F 82.5 °F 59.0 °F 45% 29.70 in 10.0 mi NW 11.5 mph 18.4 mph N/A   Partly Cloudy
1:35 PM 84.2 °F 83.8 °F 59.0 °F 42% 29.70 in 10.0 mi NW 11.5 mph 16.1 mph N/A   Partly Cloudy
1:55 PM 84.2 °F 83.8 °F 59.0 °F 42% 29.69 in 10.0 mi West 15.0 mph - N/A   Partly Cloudy
2:15 PM 84.2 °F 83.8 °F 59.0 °F 42% 29.69 in 10.0 mi WNW 12.7 mph 16.1 mph N/A   Scattered Clouds
2:35 PM 84.2 °F 83.8 °F 59.0 °F 42% 29.69 in 10.0 mi NW 9.2 mph - N/A   Partly Cloudy
2:55 PM 86.0 °F 85.4 °F 59.0 °F 40% 29.68 in 10.0 mi NW 12.7 mph 18.4 mph N/A   Partly Cloudy
3:15 PM 84.2 °F 83.8 °F 59.0 °F 42% 29.68 in 10.0 mi WNW 13.8 mph - N/A   Scattered Clouds
3:35 PM 84.2 °F 84.4 °F 60.8 °F 45% 29.67 in 10.0 mi West 8.1 mph 17.3 mph N/A   Scattered Clouds
3:55 PM 84.2 °F 84.4 °F 60.8 °F 45% 29.67 in 10.0 mi West 10.4 mph - N/A   Partly Cloudy
4:15 PM 84.2 °F 84.4 °F 60.8 °F 45% 29.66 in 10.0 mi WNW 9.2 mph - N/A   Clear
4:35 PM 82.4 °F 82.9 °F 60.8 °F 48% 29.66 in 10.0 mi WNW 8.1 mph - N/A   Clear
4:55 PM 84.2 °F 83.8 °F 59.0 °F 42% 29.66 in 9.0 mi WNW 12.7 mph - N/A   Scattered Clouds
5:15 PM 84.2 °F 83.8 °F 59.0 °F 42% 29.65 in 10.0 mi WNW 9.2 mph - N/A   Partly Cloudy
5:35 PM 84.2 °F 83.8 °F 59.0 °F 42% 29.65 in 10.0 mi WNW 11.5 mph - N/A   Clear
5:55 PM 84.2 °F 83.8 °F 59.0 °F 42% 29.65 in 10.0 mi WNW 10.4 mph - N/A   Partly Cloudy
6:15 PM 82.4 °F 82.5 °F 59.0 °F 45% 29.65 in 10.0 mi WNW 8.1 mph - N/A   Scattered Clouds
6:35 PM 82.4 °F 82.5 °F 59.0 °F 45% 29.66 in 10.0 mi WNW 10.4 mph - N/A   Mostly Cloudy
6:55 PM 80.6 °F 81.5 °F 60.8 °F 51% 29.66 in 10.0 mi NNW 5.8 mph - N/A   Scattered Clouds
7:15 PM 80.6 °F 81.1 °F 59.0 °F 48% 29.67 in 10.0 mi NNW 6.9 mph - N/A   Mostly Cloudy
7:35 PM 80.6 °F 81.5 °F 60.8 °F 51% 29.67 in 10.0 mi NNW 6.9 mph - N/A   Mostly Cloudy
7:55 PM 78.8 °F - 62.6 °F 57% 29.67 in 9.0 mi WNW 8.1 mph - N/A   Mostly Cloudy
8:15 PM 66.2 °F - 62.6 °F 88% 29.74 in 0.8 mi WNW 12.7 mph 32.2 mph 0.23 in   Overcast
8:35 PM 66.2 °F - 64.4 °F 94% 29.72 in 8.0 mi NNW 6.9 mph - 0.29 in   Mostly Cloudy
8:55 PM 66.2 °F - 64.4 °F 94% 29.72 in 10.0 mi SSW 3.5 mph - 0.29 in   Mostly Cloudy
9:15 PM 64.4 °F - 64.4 °F 100% 29.71 in 10.0 mi Calm Calm - N/A   Mostly Cloudy
9:35 PM 64.4 °F - 64.4 °F 100% 29.71 in 10.0 mi Calm Calm - N/A   Scattered Clouds
9:55 PM 64.4 °F - 64.4 °F 100% 29.71 in 10.0 mi Calm Calm - N/A   Partly Cloudy
10:15 PM 64.4 °F - 64.4 °F 100% 29.73 in 9.0 mi West 5.8 mph - N/A   Clear
10:35 PM 64.4 °F - 64.4 °F 100% 29.73 in 10.0 mi WSW 4.6 mph - N/A   Clear
10:55 PM 64.4 °F - 64.4 °F 100% 29.72 in 10.0 mi WSW 3.5 mph - N/A   Clear
11:15 PM 62.6 °F - 62.6 °F 100% 29.72 in 10.0 mi West 3.5 mph - N/A   Clear
11:35 PM 62.6 °F - 62.6 °F 100% 29.73 in 10.0 mi Calm Calm - N/A   Clear
11:55 PM 62.6 °F - 62.6 °F 100% 29.73 in 10.0 mi West 3.5 mph - N/A   Clear